Regional Weather Roundup
Issued by NWS Boston, MA

Home | Current Version | Previous Version | Text Only | Print | Product List | Glossary On
Versions: 1 2 3 4 5 6 7 8 9 10 11 12 13 14 15 16 17 18 19 20 21 22 23 24 25 26 27
000
ASUS41 KBOX 190410
RWRBOX

REGIONAL WEATHER ROUNDUP
NATIONAL WEATHER SERVICE TAUNTON MA
1100 PM EST THU JAN 18 2018

NOTE:  "FAIR" INDICATES FEW OR NO CLOUDS BELOW 12,000 FEET WITH NO
SIGNIFICANT WEATHER AND/OR OBSTRUCTIONS TO VISIBILITY.

MAZALL-190500-
EASTERN MASSACHUSETTS

CITY           SKY/WX    TMP DP  RH WIND       PRES   REMARKS
BOSTON         FAIR      25  16  68 W12       29.95S WCI  14
BEVERLY        FAIR      21  15  78 W3        29.93F
LAWRENCE       FAIR      21  15  78 CALM      29.96R
BEDFORD        FAIR      19  13  77 W5        29.94F WCI  12
BLUE HILL        N/A     19  15  84 NW12      29.90R WCI   7
NORWOOD        FAIR      25  16  68 W8        29.96R WCI  16
MARSHFIELD     FAIR      25  18  74 VRB6      29.94S WCI  18
PLYMOUTH       FAIR      25  16  68 W7        29.94S WCI  17
TAUNTON        FAIR      25  16  68 W6        29.95R WCI  18
NEW BEDFORD    FAIR      25  17  72 NW7       29.94S WCI  17
$$

MAZALL-190500-
CAPE COD AND THE ISLANDS

CITY           SKY/WX    TMP DP  RH WIND       PRES   REMARKS
FALMOUTH       FAIR      23  16  74 NW7       29.94  WCI  15
HYANNIS        CLOUDY    27  17  66 W6        29.91S WCI  20
CHATHAM        CLOUDY    30  22  72 VRB7      29.93R WCI  23
PROVINCETOWN   CLOUDY    31  23  72 MISG        N/A
NANTUCKET      CLOUDY    29  21  72 NW15      29.92F WCI  18
MARTHAS VNYRD  FAIR     N/A N/A N/A NW7       29.94F
$$

MAZALL-190500-
CENTRAL AND WESTERN MASSACHUSETTS

CITY           SKY/WX    TMP DP  RH WIND       PRES   REMARKS
WORCESTER      FAIR      17  11  77 W13       29.91S WCI   4
FITCHBURG      FAIR      19  14  81 N5        29.96F WCI  12
ORANGE         FAIR      21  15  78 VRB7      29.96F WCI  12
SPRINGFIELD    CLOUDY    22  14  70 W8        29.98F WCI  12
WESTFIELD      FAIR      21  13  71 W8        30.00F WCI  11
NORTH ADAMS    CLOUDY    20  13  74 W8        29.98S WCI  10
PITTSFIELD     CLOUDY    19  12  74 W9        29.94S WCI   8
$$

RIZALL-190500-
RHODE ISLAND

CITY           SKY/WX    TMP DP  RH WIND       PRES   REMARKS
PROVIDENCE     FAIR      24  16  71 W9        29.98S WCI  14
NEWPORT        FAIR      25  16  68 NW14      29.96R WCI  13
BLOCK ISLAND   FAIR      26  18  71 NW13G23   29.99S WCI  15
SMITHFIELD     FAIR     N/A N/A N/A W8        29.95S
WESTERLY       FAIR      25  15  66 NW6       30.00S WCI  18
$$

CTZALL-190500-
CONNECTICUT

CITY           SKY/WX    TMP DP  RH WIND       PRES   REMARKS
BRADLEY INTL   FAIR      20  12  71 NW8       30.02S WCI  10
HARTFORD       FAIR      23  14  68 W6        30.04S WCI  16
BRIDGEPORT     FAIR      24  13  62 NW8       30.06F WCI  15
DANBURY        FAIR      13  10  88 SW5       30.05S WCI   5
GROTON         FAIR      24  14  65 NW13      30.01S WCI  12
NEW HAVEN      FAIR      26  15  63 NW6       30.05S WCI  19
CHESTER        FAIR      23  14  68 NW8G15    30.00F WCI  14
MERIDEN        FAIR      21  13  71 W12       30.04S WCI   9
WILLIMANTIC    FAIR      22  13  68 W7        30.01R WCI  13
OXFORD         CLOUDY    20  13  74 NW3       30.01F
$$

MEZ002-015-021-024-NHZ003-005-008-011-012-014-VTZ005-008-190500-
NORTHERN NEW ENGLAND

CITY           SKY/WX    TMP DP  RH WIND       PRES   REMARKS
PORTLAND ME    FAIR      19  16  88 W7        29.91S WCI  10
BANGOR ME      CLOUDY    22  16  78 NW7       29.87S WCI  13
CONCORD NH     FAIR      10   6  84 E3        29.93S
MANCHESTER NH  FAIR      17  13  84 VRB3      29.92F
NASHUA NH      FAIR      14  12  92 NW3       29.95F
PORTSMOUTH NH  CLEAR     21  15  76 W7        29.91S WCI  12
JAFFREY NH     FAIR      13  11  92 CALM      29.90F
KEENE NH       CLOUDY    20  18  92 CALM      29.95F
BURLINGTON VT  CLOUDY    24  16  71 S9        29.93S WCI  14
MT. WASHINGTON MOCLDY    23   7  50 NW18        N/A  WCI   9
$$

NYZ052-076-190500-
EASTERN NEW YORK

CITY           SKY/WX    TMP DP  RH WIND       PRES   REMARKS
ALBANY         FLURRIES  23  14  68 NW7       30.03F WCI  15
NEW YORK CITY  FAIR      27  13  55 NW14      30.08F WCI  16
$$

ANZALL-190500-
MARINE OBSERVATIONS

STATION/POSITION TIME  TEMP    WIND        PRES    VSBY  WAVE
                       AIR SEA DIR/SP/G                  HT/PER
                 (UTC) (F)     (DEG/KT/KT) (MB)    (MI)  (FT/S)
BOSTON BUOY      0350   29 41  310/ 16/ 19 1012.9R         3/ 3
BUZZARDS BAY     0400   27     320/ 17/ 19 1014.9S
NANTUCKET SOUND  0350   28 36  320/ 17/ 19 1013.2R         2/ 3
MASS BAY-STELLWA 0304   29 39              1012.4R         3/ 8
ISLE OF SHOALS   0400   27     290/ 12/ 14 1012.8F
S OF BLOCK IS    0343      42                N/A           5/ 5
$$

......................KEY.........................
  SKY/WX - SKY CONDITION/PRESENT WEATHER
  TMP    - TEMPERATURE IN FAHRENHEIT
  DWPT   - DEWPOINT IN FAHRENHEIT
  RH     - RELATIVE HUMIDITY IN PERCENT
  WIND   - DIRECTION AND SPEED IN MPH
  PRES   - MEAN SEA LEVEL PRESSURE IN INCHES OF HG
  WCI    - WIND CHILL INDEX
  VSB    - VISIBILITY IN MILES
  HX     - HEAT INDEX
  TC     - TEMPERATURE IN CELSIUS
  VRB    - VARIABLE WIND DIRECTION
  N/A    - NOT AVAILABLE




USA.gov is the U.S. government's official web portal to all federal, state and local government web resources and services.